Regional Weather Roundup
Issued by NWS

Home | Current Version | Previous Version | Graphics & Text | Print | Product List | Glossary On
Versions: 1 2 3 4 5 6 7 8 9 10 11 12 13 14 15 16 17 18 19 20 21 22 23 24 25 26 27 28 29 30 31 32 33 34 35 36 37 38 39 40 41 42 43 44 45 46 47 48 49 50
000
ASUS44 KMEG 290600
RWRTN
TENNESSEE HOURLY STATE WEATHER ROUNDUP
NATIONAL WEATHER SERVICE MEMPHIS TN
100 AM CDT SUN MAR 29 2015

TNZ002-004-019-021-049-052-054-088>092-290700-
WEST TENNESSEE

CITY           SKY/WX    TMP DP  RH WIND       PRES   REMARKS
MEMPHIS INTL   CLEAR     37  28  70 E5        30.30F WCI  33
NWS MEMPHIS      N/A     32 N/A N/A MISG        N/A
JACKSON        CLEAR     28  23  81 CALM      30.33S
DYERSBURG      CLEAR     30  16  55 CALM      30.34S
UNION CITY     CLEAR     30  25  80 CALM      30.32R
PARIS          CLEAR     27  18  69 E5        30.33S WCI  21
LEXINGTON      CLEAR     27  21  80 CALM      30.31F
SAVANNAH       CLEAR     27  25  93 CALM      30.33S
$$

TNZ008-025-027-028-033-062-065-066-290700-
NORTH MIDDLE TENNESSEE

CITY           SKY/WX    TMP DP  RH WIND       PRES   REMARKS
NASHVILLE      CLEAR     32  20  61 CALM      30.35R
CLARKSVILLE    CLEAR     31  16  54 CALM      30.35R
COOKEVILLE     CLEAR     25  19  80 CALM      30.32S
CROSSVILLE     CLEAR     29  15  56 CALM      30.30R
$$

TNZ061-075-076-078-094-096-097-290700-
SOUTH MIDDLE TENNESSEE

CITY           SKY/WX    TMP DP  RH WIND       PRES   REMARKS
FAYETTEVILLE   CLEAR     30  12  47 NE5       30.32R WCI  25
TULLAHOMA      CLEAR     25  18  74 CALM      30.33R
WINCHESTER     CLEAR     27  21  80 CALM      30.33S
COLUMBIA       CLEAR     28  28 100 CALM      30.32R
SHELBYVILLE    CLEAR     27  19  74 CALM      30.35R
$$

TNZ017-018-042-046-047-290700-
NORTHEAST TENNESSEE

CITY           SKY/WX    TMP DP  RH WIND       PRES   REMARKS
TRI CITIES     CLEAR     25  14  63 CALM      30.31R
ELIZABETHTON   CLEAR     21  12  68 SW3       30.30R
$$

TNZ012-013-036-069-073-074-290700-
CENTRAL EAST TENNESSEE

CITY           SKY/WX    TMP DP  RH WIND       PRES   REMARKS
KNOXVILLE      CLEAR     32  15  49 NE3       30.33R
OAK RIDGE      CLEAR     33  14  45 N3        30.35R
GATLINBURG     CLEAR     25  18  74 CALM      30.33S
$$

TNZ083-085-099-290700-
SOUTHEAST TENNESSEE

CITY           SKY/WX    TMP DP  RH WIND       PRES   REMARKS
CHATTANOOGA    CLEAR     34  21  59 NW3       30.34R
$$

SKY/WX REPORTED AS FAIR MEANS FEW OR NO CLOUDS BELOW
12 THOUSAND FEET.




USA.gov is the U.S. government's official web portal to all federal, state and local government web resources and services.